Satellite-Ground Cal/Val Site Overpasses Predictions

Prediction of Satellite NPP Overpassing Cal/Val Site: Antarctic Dome C

Ground Cal/Val Site Location: Latitude: -75.10, Longitude: 123.35; Satellite-Ground Site NADIR distance within 100 km.

Table of predicted overpasses for the next 14.0 days since TLE Epoch: 11/4/2022
Interval Starting Time Ending Time Minimum Distance Time Minimum Distance (km)
1 11/05/2022 15:08:36 11/05/2022 15:08:40 11/05/2022 15:08:38 98.62
2 11/06/2022 14:49:33 11/06/2022 14:50:02 11/06/2022 14:49:48 12.73
3 11/08/2022 07:32:22 11/08/2022 07:32:51 11/08/2022 07:32:36 2.80
4 11/11/2022 14:55:46 11/11/2022 14:56:15 11/11/2022 14:56:01 23.30
5 11/12/2022 14:37:04 11/12/2022 14:37:19 11/12/2022 14:37:11 83.89
6 11/13/2022 07:38:36 11/13/2022 07:39:04 11/13/2022 07:38:50 34.20
7 11/14/2022 07:19:50 11/14/2022 07:20:08 11/14/2022 07:19:59 75.91
8 11/16/2022 15:02:02 11/16/2022 15:02:26 11/16/2022 15:02:14 59.72
9 11/17/2022 14:43:12 11/17/2022 14:43:37 11/17/2022 14:43:24 49.50
